Regional Weather Roundup
Issued by NWS

Home | Current Version | Previous Version | Text Only | Print | Product List | Glossary Off
Versions: 1 2 3 4 5 6 7 8 9 10 11 12 13 14 15 16 17 18 19 20 21 22 23 24 25 26 27 28 29 30 31 32 33 34 35 36 37 38 39 40 41 42 43 44 45 46 47 48 49 50

645
ASUS43 KBIS 301610
RWRND

NORTH DAKOTA REGIONAL WEATHER ROUNDUP
NATIONAL WEATHER SERVICE BISMARCK ND
1100 AM CDT TUE AUG 30 2016

NOTE: "FAIR" INDICATES FEW OR NO CLOUDS BELOW 12,000 FEET WITH NO
SIGNIFICANT WEATHER AND/OR OBSTRUCTIONS TO VISIBILITY.


NDZ001>003-009>011-017-301700-
NORTHWEST NORTH DAKOTA

CITY           SKY/WX    TMP DP  RH WIND       PRES   REMARKS
WILLISTON      SUNNY     74  45  35 SE9       30.22S
MINOT          SUNNY     70  47  43 SE7       30.27S
MINOT AFB      SUNNY     71  48  44 SE6       30.26S
$$

NDZ018>021-031>035-040>046-301700-
SOUTHWEST NORTH DAKOTA

CITY           SKY/WX    TMP DP  RH WIND       PRES   REMARKS
BISMARCK       SUNNY     69  50  50 SE10      30.28R
DICKINSON      SUNNY     72  46  39 SE17      30.23S
GARRISON         N/A     70  49  47 SE12      30.27S
HETTINGER ARPT CLOUDY    68  51  54 SE12      30.26F
$$

NDZ004>008-012>016-024-026-027-054-301700-
NORTHEAST NORTH DAKOTA

CITY           SKY/WX    TMP DP  RH WIND       PRES   REMARKS
GRAND FORKS    MOSUNNY   69  53  56 W6        30.25S
GRND FRKS AFB  SUNNY     71  51  50 VRB5      30.25F
DEVILS LAKE    SUNNY     69  54  58 S5        30.29R
$$

NDZ022-023-025-028>030-036>039-047>053-301700-
SOUTHEAST NORTH DAKOTA

CITY           SKY/WX    TMP DP  RH WIND       PRES   REMARKS
FARGO          SUNNY     72  54  53 W3        30.25S
JAMESTOWN      SUNNY     70  51  51 SE3       30.27S
$$





USA.gov is the U.S. government's official web portal to all federal, state and local government web resources and services.